Theta_e
319 320 321 321 321 321 320 320 320 320 320 321 321 321 321 321 320 318 311 321 322 331 325 311 311 312 311 309 308 306 303 301 300 300 304 307 308 311 313 320 325 327 328 333 341
318 319 320 320 320 320 320 320 320 320 320 321 321 321 320 321 316 313 326 336 336 333 309 309 310 311 309 306 306 305 303 301 303 304 305 310 323 323 317 315 322 326 334 337 340
318 319 320 320 320 319 319 319 320 320 320 321 320 320 321 322 313 313 339 339 337 324 311 313 312 310 306 305 304 302 304 303 305 305 304 305 323 325 323 319 325 324 328 334 336
318 319 319 319 319 319 319 319 319 319 319 320 319 319 321 320 302 314 340 337 335 315 312 311 310 307 305 305 304 302 305 304 306 315 313 316 325 321 323 325 330 330 334 335 336
318 319 319 319 318 318 318 318 319 318 318 318 318 320 319 312 312 328 339 333 315 311 310 312 309 307 305 305 305 304 304 304 310 324 324 324 321 322 324 331 336 335 335 334 337
318 318 318 318 318 318 317 317 317 317 318 318 319 320 316 307 318 330 319 313 313 311 311 312 311 309 307 305 305 305 306 307 315 322 323 320 321 323 330 337 338 339 339 340 340
317 317 318 318 317 317 317 317 316 317 319 320 319 320 311 311 318 320 316 314 314 314 312 313 313 310 308 305 306 305 306 318 314 311 321 318 318 320 329 337 335 336 337 337 339
317 317 317 317 317 317 317 317 316 319 322 320 321 319 308 317 319 317 315 314 315 315 314 314 312 310 307 307 305 303 304 304 314 316 319 321 312 321 330 333 331 334 333 333 334
317 317 316 317 316 316 316 315 319 323 321 322 319 315 313 323 317 317 317 314 313 313 313 312 311 307 307 305 304 303 300 305 311 317 316 320 314 321 330 330 328 330 332 333 331
317 316 316 316 316 315 314 316 319 321 321 323 320 311 315 313 317 315 314 314 312 312 310 310 308 307 306 306 300 300 303 308 309 314 319 316 315 322 328 325 323 325 328 327 323
317 316 316 315 315 314 313 311 309 308 309 306 308 310 312 316 317 314 314 313 312 310 306 306 306 304 304 304 303 303 309 308 311 313 314 313 317 319 323 323 319 319 320 319 319
317 316 316 315 314 313 313 308 307 307 302 307 307 307 310 312 309 313 315 309 308 305 305 305 303 305 305 304 305 312 309 307 310 314 314 313 312 318 320 323 323 319 318 318 319
315 315 315 314 312 310 307 308 310 308 302 305 308 308 310 311 309 311 312 309 306 304 303 304 305 305 306 304 304 305 306 307 307 311 313 312 310 314 319 322 323 324 323 322 320
315 315 314 312 309 307 305 309 310 309 303 305 308 310 310 311 308 313 312 310 307 304 304 305 306 306 305 304 305 302 305 307 309 308 304 307 301 311 315 319 321 322 322 322 322
315 315 314 313 308 306 307 310 311 311 293 307 306 311 309 308 309 309 312 311 305 305 306 303 304 304 304 305 305 303 308 310 308 306 306 304 303 308 315 315 317 321 322 323 322
315 315 313 309 307 309 310 310 310 300 293 303 305 304 305 307 307 309 309 313 310 306 308 305 309 306 305 306 308 309 307 307 306 306 300 303 303 305 312 313 317 319 321 321 321
314 314 310 310 306 310 310 310 298 297 305 300 301 304 303 303 304 306 307 307 306 303 304 306 306 310 308 307 309 307 305 298 297 298 298 304 304 307 312 315 318 318 321 321 322
312 309 308 310 311 310 309 306 294 300 303 308 302 302 301 303 304 306 305 305 309 306 305 302 299 308 309 306 306 305 305 300 291 295 298 305 302 307 314 316 317 323 321 320 318
307 309 307 311 311 310 308 297 299 303 306 305 301 300 299 302 305 306 305 304 306 307 305 303 301 309 308 308 308 304 304 305 300 299 300 302 306 310 312 313 317 318 317 315 316
307 306 309 314 313 310 304 294 301 306 307 307 299 301 298 301 304 304 304 306 306 307 310 306 302 305 308 309 308 307 306 301 303 292 290 297 301 304 307 309 311 312 312 312 311
308 305 313 314 312 305 297 297 301 307 308 306 304 303 301 304 305 303 302 304 305 307 309 306 305 303 307 305 303 304 304 302 302 299 294 292 300 307 307 308 308 309 309 307 308
306 299 314 312 304 299 297 300 301 306 309 307 308 307 306 305 303 303 302 304 308 305 304 305 304 301 302 306 306 306 303 302 299 296 299 298 299 308 308 308 309 308 308 309 309
302 304 315 312 299 298 302 302 306 307 306 307 306 308 308 304 303 304 305 307 310 309 305 306 300 298 300 304 307 304 304 301 301 302 298 296 298 307 307 306 306 306 306 307 309
303 299 308 307 303 302 300 301 302 308 306 307 307 309 307 304 306 304 305 309 311 310 312 313 303 300 297 299 303 302 303 302 302 300 299 301 301 304 304 304 304 305 307 308 309
302 300 304 303 303 302 301 300 300 303 308 309 309 307 307 303 304 304 307 309 309 311 309 311 302 303 304 304 304 302 302 303 302 301 300 300 301 304 306 305 305 306 307 307 307
301 302 304 303 303 303 299 300 301 304 307 306 308 308 307 307 307 305 308 308 307 308 308 307 302 304 300 303 304 301 303 303 302 301 300 300 300 304 307 309 306 306 306 306 307
303 306 306 302 304 301 301 300 303 305 309 309 310 308 307 307 310 310 310 309 308 307 306 305 305 302 297 301 301 299 301 302 301 302 302 300 302 304 304 304 305 305 306 306 308
Wind_Speed
16 17 17 17 17 17 17 18 18 17 18 17 17 16 16 14 12 3 3 2 4 7 5 5 3 4 3 3 3 3 3 2 1 2 8 12 13 10 8 4 0 9 8 5 14
16 17 16 18 19 17 18 18 19 17 17 16 16 15 14 12 3 3 4 7 7 9 6 8 5 6 4 3 3 2 1 2 1 2 5 8 11 8 8 6 9 10 12 8 11
15 16 18 19 20 19 19 19 19 17 17 16 16 15 12 9 2 2 4 8 6 7 3 2 5 2 3 2 3 3 2 3 3 5 2 4 13 14 13 7 12 20 1 7 6
16 17 18 19 21 20 20 21 19 19 19 16 15 13 12 5 2 1 6 7 5 5 4 4 3 3 3 3 3 3 2 3 6 9 4 5 6 18 19 10 13 13 9 10 10
16 18 17 19 21 21 21 22 20 19 18 15 12 10 3 3 1 4 5 6 4 3 2 3 3 3 1 1 3 3 2 1 8 15 17 18 16 21 20 15 17 20 19 17 17
16 20 20 23 23 23 23 22 20 19 16 12 8 5 3 1 3 8 8 5 4 3 2 3 2 1 2 1 2 3 5 3 9 9 11 24 20 8 15 13 18 21 21 20 23
16 18 20 22 23 23 23 22 20 18 12 4 2 1 3 2 4 6 7 3 2 2 2 2 4 1 1 2 2 2 8 11 7 1 5 7 22 16 10 12 18 19 18 20 22
18 19 20 24 26 26 25 22 18 12 6 3 5 3 4 2 5 4 4 3 4 3 2 3 5 4 1 2 3 3 5 5 7 2 6 3 7 10 9 12 17 17 15 19 20
16 20 22 25 25 27 25 21 10 7 8 5 2 3 1 2 2 1 5 3 4 3 2 4 1 3 2 3 6 3 6 8 6 11 1 3 11 7 10 11 16 15 13 15 16
16 19 21 23 26 28 26 8 2 3 3 4 3 3 0 2 3 1 2 2 1 1 3 2 3 1 1 3 3 2 7 7 6 8 17 18 14 10 10 12 14 13 12 14 17
16 20 23 26 27 28 13 0 5 2 4 1 3 5 3 6 3 4 3 5 1 3 1 2 2 2 1 2 3 5 10 15 9 4 12 13 13 10 9 11 13 13 14 14 15
17 20 22 25 28 23 5 6 4 3 8 3 6 6 6 1 2 2 6 3 2 2 2 2 4 1 2 6 10 13 17 8 6 8 9 13 11 9 7 7 10 8 9 9 9
15 19 21 27 29 5 3 5 4 4 4 6 3 4 1 5 2 3 6 3 2 2 1 3 3 1 3 5 7 9 5 9 5 9 10 8 9 5 6 8 5 3 8 8 7
16 15 19 30 3 6 2 2 6 5 3 0 3 2 4 2 2 1 4 2 2 1 3 2 2 3 3 1 3 6 4 11 14 8 4 3 5 4 5 8 6 4 7 5 4
16 16 11 9 7 5 4 9 4 4 2 2 3 2 2 3 0 2 1 2 2 1 3 3 3 5 3 3 1 2 5 11 11 7 4 3 4 6 1 7 5 4 6 7 7
16 15 15 1 3 6 9 11 4 1 3 3 4 4 4 1 1 0 2 5 1 3 3 2 2 1 0 3 5 10 10 11 3 2 3 3 4 5 1 2 2 1 4 6 8
17 19 11 2 3 5 8 3 0 3 3 3 4 4 3 2 1 2 4 5 2 4 3 2 3 3 1 4 7 4 4 3 4 4 3 1 5 4 1 3 5 6 5 7 7
17 23 3 5 4 6 3 1 0 2 1 1 4 6 4 4 3 3 3 5 6 2 3 2 5 6 7 3 3 5 3 1 1 2 3 1 2 4 5 5 3 3 4 5 8
18 5 3 3 3 2 1 2 3 5 2 2 5 4 1 2 3 3 5 3 5 3 2 3 4 0 7 3 3 4 2 3 5 1 3 1 1 3 5 6 6 5 6 9 10
7 5 4 2 4 0 0 3 3 3 3 1 3 2 6 2 3 2 3 2 2 6 3 3 4 3 2 3 13 3 6 1 1 2 3 3 3 3 8 6 4 6 7 8 8
3 4 3 2 0 2 2 4 5 6 5 4 3 4 3 4 3 3 2 2 3 2 4 2 1 2 2 7 4 3 3 6 3 3 3 4 2 5 7 5 5 7 6 6 8
2 3 2 2 2 1 3 4 4 5 1 2 2 3 4 4 4 4 4 3 6 1 3 3 3 3 5 2 1 7 4 3 4 1 2 3 3 5 4 6 6 6 7 9 10
3 4 1 1 2 1 4 3 4 3 3 2 2 1 2 4 6 3 3 2 6 4 3 2 3 5 5 5 3 6 5 2 3 1 2 4 5 4 3 2 4 6 8 9 9
2 3 1 2 1 2 4 3 5 3 3 1 3 3 4 4 5 6 5 5 4 6 7 6 4 4 2 5 2 5 9 4 3 2 3 3 3 3 1 2 3 5 7 7 9
1 1 2 0 1 2 1 2 3 3 2 2 3 3 5 6 6 5 4 3 6 4 4 4 5 6 10 11 13 11 13 14 9 3 5 4 1 1 2 5 5 6 8 10 12
2 2 1 2 2 2 3 2 3 3 4 2 6 3 3 6 2 8 7 2 2 5 4 3 5 6 6 8 13 16 10 7 7 5 6 2 1 2 4 6 9 11 9 11 10
2 1 3 0 1 3 3 3 3 5 3 4 6 8 11 5 9 11 11 10 5 3 4 3 6 3 5 3 1 4 7 7 2 2 3 5 5 6 7 10 12 10 11 11 7
Wind_Direction
350 347 339 336 328 328 322 320 317 320 319 321 322 326 331 331 313 133 238 231 174 146 157 128 115 110 125 115 112 164 245 297 350 326 350 348 7 19 322 279 353 52 33 126 135
349 342 339 330 324 324 317 319 314 317 316 320 319 327 331 329 297 252 251 172 169 150 148 178 150 146 112 117 135 209 298 296 303 282 330 55 34 338 340 344 65 51 62 123 134
347 339 334 330 324 319 315 316 309 315 315 316 316 328 325 307 250 90 204 190 197 173 138 111 104 120 125 189 154 145 262 12 7 323 323 89 61 32 1 22 337 305 334 124 113
347 340 333 328 317 317 320 312 307 316 311 312 315 324 322 257 100 55 184 160 169 137 129 111 90 121 136 173 150 244 300 246 354 8 89 73 83 52 42 27 26 58 104 90 62
341 328 334 317 316 324 319 309 309 311 304 304 313 321 331 229 255 112 161 136 140 159 137 131 90 146 170 185 188 206 299 13 68 90 91 82 68 63 46 54 66 74 69 66 56
338 328 328 326 326 321 317 311 311 307 299 299 300 325 249 128 111 146 159 157 184 184 126 158 120 151 101 304 284 154 23 55 90 114 95 71 53 62 40 68 69 68 65 60 61
335 325 325 322 319 318 317 318 311 305 300 309 237 206 252 135 122 166 189 193 196 196 191 200 147 112 145 202 137 146 120 118 35 334 157 335 42 43 43 72 75 72 69 64 59
328 326 326 326 325 322 325 314 315 300 15 104 147 231 249 150 127 168 182 237 239 242 259 161 172 110 211 45 106 184 160 164 37 348 28 146 78 34 39 80 76 72 69 70 62
329 324 329 328 323 323 323 318 310 47 78 142 144 253 107 145 223 138 194 210 187 154 205 134 88 55 183 233 157 61 112 97 106 15 224 109 124 50 34 66 69 69 74 79 76
326 325 325 325 327 326 323 300 40 67 128 224 257 260 272 76 319 320 182 212 307 81 128 42 55 344 73 341 60 65 121 78 82 46 96 98 103 90 68 67 67 65 58 62 74
332 330 330 333 329 327 330 268 2 54 28 311 302 292 303 304 254 208 161 137 120 64 103 20 185 120 318 101 81 106 118 114 118 137 68 93 98 83 80 77 69 57 53 50 45
334 328 334 329 330 320 301 63 86 302 319 279 249 272 260 268 302 215 154 180 152 113 141 175 89 282 114 132 106 126 123 110 100 95 105 121 101 85 80 87 85 89 88 80 73
327 329 336 333 324 1 359 80 352 169 246 291 220 252 168 162 224 205 176 156 121 112 144 130 78 177 150 142 134 161 170 174 148 118 91 129 118 124 74 102 112 175 91 78 72
323 335 340 331 40 329 330 8 317 205 296 233 209 198 144 221 258 231 197 140 123 71 168 62 347 105 76 123 178 172 125 161 144 172 152 283 150 128 111 126 97 99 120 103 108
319 328 341 334 305 287 339 336 314 226 114 193 138 116 119 204 294 94 103 121 144 72 239 59 58 39 57 7 163 78 72 149 135 100 158 66 271 108 198 154 102 143 134 122 95
316 320 334 192 252 265 319 315 223 13 172 143 106 134 148 348 46 84 104 51 53 102 38 34 332 55 35 83 76 138 92 93 106 143 168 35 295 133 171 347 280 299 105 87 72
312 308 308 231 267 336 319 267 132 244 268 138 128 143 150 163 86 60 68 56 57 150 49 39 49 352 351 142 122 181 163 162 171 205 47 350 229 33 290 314 287 325 35 42 35
314 310 233 226 270 315 267 147 292 268 222 15 115 114 174 155 46 59 105 84 55 24 106 108 153 4 353 35 81 47 353 24 267 266 93 158 233 77 344 340 284 75 78 51 36
315 314 262 263 201 173 284 114 232 228 34 15 112 123 171 144 126 94 49 67 33 337 87 136 91 246 38 59 321 133 77 49 104 46 234 40 182 201 28 32 64 68 52 35 30
328 326 286 347 153 166 169 234 258 250 352 258 143 169 172 150 111 90 47 356 29 15 287 114 127 21 58 192 58 34 119 199 82 276 295 178 256 282 346 357 34 40 49 49 29
314 316 359 98 23 29 250 242 288 273 223 205 182 124 125 131 94 84 41 51 10 27 63 93 320 95 265 31 19 104 97 68 83 330 304 301 127 354 326 3 66 71 52 22 8
321 273 76 203 244 100 226 196 309 280 264 268 129 109 131 118 85 100 112 350 341 306 60 41 77 77 91 62 359 59 50 33 298 164 64 322 92 4 59 61 53 42 15 7 359
296 280 346 224 252 254 271 320 260 292 316 359 123 74 71 122 108 108 110 59 30 60 75 148 39 131 148 157 92 48 22 60 104 284 106 301 79 108 92 73 28 4 5 356 356
284 286 301 59 13 275 24 298 295 261 255 278 103 112 110 68 33 134 122 54 45 76 61 92 71 23 153 66 49 58 16 8 349 356 107 37 124 164 205 294 344 0 357 0 2
326 291 350 176 231 279 324 297 290 313 334 350 78 81 124 108 103 102 107 121 60 53 54 64 84 90 80 87 87 80 55 49 66 29 13 94 76 193 261 295 317 335 356 3 358
261 268 199 279 285 256 170 235 270 335 335 355 108 79 87 133 179 155 139 113 108 71 65 22 123 123 66 102 95 75 53 54 53 55 90 84 58 13 313 305 323 346 355 355 352
131 261 273 3 250 205 209 262 297 335 68 34 118 101 65 53 94 85 82 74 77 98 101 68 145 155 129 191 295 73 26 43 51 39 359 4 21 351 346 342 340 349 355 344 341